Drummond Island, MI

12:46 AM EDT on April 23, 2018 (GMT -0400)
Drummond Island

Weather History for KDRM - February, 2013

Change the Weather History Date:

Tuesday, February 12, 2013

  Actual Average (KCIU) Record (KCIU)
Temperature  
Mean Temperature 26 °F -  
Max Temperature 28 °F 22 °F 44 °F (1999)
Min Temperature 25 °F 2 °F -20 °F (1981)
Degree Days  
Heating Degree Days 38    
Moisture  
Dew Point 22 °F    
Average Humidity 83    
Maximum Humidity 89    
Minimum Humidity 72    
Precipitation  
Precipitation 0.00 in - - ()
Sea Level Pressure  
Sea Level Pressure 29.80 in    
Wind  
Wind Speed 7 mph (West)    
Max Wind Speed 12 mph    
Max Gust Speed 24 mph    
Visibility 9 miles    
Events Snow    
Averages and records for this station are not official NWS values.
T = Trace of Precipitation, MM = Missing Value Source: NWS Daily Summary

Daily Weather History Graph

Daily Weather History Graph

Search for Another Location

Airport or City:

Astronomy

Feb. 12, 2013 Rise Set
Actual Time 7:41 AM EST 5:57 PM EST
Civil Twilight 7:10 AM EST 6:28 PM EST
Nautical Twilight 6:35 AM EST 7:03 PM EST
Astronomical Twilight 6:01 AM EST 7:37 PM EST
Moon 8:27 AM EST (2/12) 9:10 PM EST (2/12)
Length of Visible Light 11h 17m
Length of Day
10h 15m
Waxing Crescent, 7% of the Moon is Illuminated
Feb 12
Waxing Crescent
Feb 17
First Quarter
Feb 25
Full
Mar 4
Last Quarter
Mar 11
New

Hourly Weather History & Observations

Time (EST) Temp. Windchill Dew Point Humidity Pressure Visibility Wind Dir Wind Speed Gust Speed Precip Events Conditions
12:16 AM 27.1 °F 16.9 °F 23.2 °F 85% 29.65 in 5.0 mi West 11.5 mph 24.2 mph N/A Snow Light Snow
12:36 AM 27.0 °F 17.3 °F 23.4 °F 86% 29.67 in 7.0 mi West 10.4 mph 16.1 mph N/A   Overcast
12:56 AM 26.8 °F 16.5 °F 23.0 °F 86% 29.68 in 10.0 mi West 11.5 mph 16.1 mph N/A   Overcast
1:16 AM 26.6 °F 16.8 °F 22.8 °F 86% 29.69 in 10.0 mi West 10.4 mph 16.1 mph N/A   Overcast
1:36 AM 26.6 °F 18.2 °F 23.4 °F 88% 29.69 in 10.0 mi West 8.1 mph - N/A   Overcast
1:56 AM 26.6 °F 18.2 °F 23.2 °F 87% 29.70 in 10.0 mi West 8.1 mph 17.3 mph N/A   Overcast
2:15 AM 26.6 °F 18.2 °F 22.8 °F 86% 29.71 in 10.0 mi WNW 8.1 mph 18.4 mph N/A   Overcast
2:36 AM 26.4 °F 19.8 °F 22.8 °F 86% 29.71 in 10.0 mi West 5.8 mph - N/A   Overcast
2:56 AM 26.4 °F 18.0 °F 22.8 °F 86% 29.72 in 7.0 mi West 8.1 mph - N/A   Overcast
3:16 AM 26.1 °F 16.8 °F 23.0 °F 88% 29.73 in 5.0 mi West 9.2 mph - N/A   Overcast
3:36 AM 25.7 °F 18.0 °F 23.0 °F 89% 29.74 in 7.0 mi West 6.9 mph - N/A   Overcast
3:55 AM 25.7 °F 20.1 °F 23.0 °F 89% 29.74 in 10.0 mi West 4.6 mph - N/A   Overcast
4:16 AM 25.5 °F 19.9 °F 22.6 °F 89% 29.75 in 10.0 mi West 4.6 mph - N/A   Overcast
4:36 AM 25.5 °F 18.7 °F 22.5 °F 88% 29.75 in 10.0 mi West 5.8 mph - N/A   Overcast
4:55 AM 25.5 °F 16.9 °F 22.1 °F 87% 29.76 in 10.0 mi West 8.1 mph - N/A   Overcast
5:16 AM 25.3 °F 19.7 °F 22.1 °F 87% 29.77 in 10.0 mi West 4.6 mph - N/A   Overcast
5:36 AM 25.3 °F 17.6 °F 22.1 °F 87% 29.77 in 10.0 mi West 6.9 mph - N/A   Overcast
5:55 AM 25.5 °F 16.9 °F 21.9 °F 86% 29.78 in 10.0 mi West 8.1 mph - N/A   Overcast
6:16 AM 25.5 °F 16.9 °F 21.6 °F 85% 29.78 in 10.0 mi West 8.1 mph - N/A   Overcast
6:35 AM 25.3 °F 18.5 °F 21.2 °F 84% 29.79 in 10.0 mi WNW 5.8 mph - N/A   Overcast
6:56 AM 25.3 °F 15.3 °F 21.2 °F 84% 29.80 in 10.0 mi WNW 10.4 mph - N/A   Overcast
7:16 AM 25.3 °F 21.1 °F 21.6 °F 86% 29.80 in 10.0 mi West 3.5 mph - N/A   Overcast
7:35 AM 25.3 °F 18.5 °F 21.7 °F 86% 29.81 in 10.0 mi WNW 5.8 mph - N/A   Overcast
7:56 AM 25.3 °F 16.0 °F 21.9 °F 87% 29.82 in 10.0 mi WNW 9.2 mph - N/A   Overcast
8:16 AM 25.2 °F 19.5 °F 22.1 °F 88% 29.83 in 7.0 mi NW 4.6 mph - N/A   Overcast
8:35 AM 25.0 °F 17.1 °F 22.1 °F 89% 29.84 in 10.0 mi WNW 6.9 mph - N/A   Overcast
8:56 AM 25.2 °F 19.5 °F 22.1 °F 88% 29.85 in 7.0 mi WNW 4.6 mph - N/A   Overcast
9:16 AM 25.5 °F 18.7 °F 22.5 °F 88% 29.86 in 5.0 mi West 5.8 mph - N/A Snow Light Snow
9:36 AM 25.7 °F 21.5 °F 22.6 °F 88% 29.86 in 4.0 mi West 3.5 mph - N/A Snow Light Snow
9:56 AM 25.3 °F 17.6 °F 22.6 °F 89% 29.86 in 4.0 mi West 6.9 mph - N/A Snow Light Snow
10:16 AM 25.7 °F 18.0 °F 23.0 °F 89% 29.87 in 5.0 mi West 6.9 mph - N/A Snow Light Snow
10:36 AM 25.9 °F 18.2 °F 22.8 °F 88% 29.87 in 7.0 mi West 6.9 mph - N/A   Overcast
10:56 AM 26.1 °F 19.4 °F 22.8 °F 88% 29.87 in 10.0 mi West 5.8 mph - N/A   Overcast
11:16 AM 26.4 °F 20.9 °F 23.0 °F 87% 29.87 in 10.0 mi WNW 4.6 mph - N/A   Overcast
11:36 AM 26.6 °F 20.0 °F 23.0 °F 86% 29.87 in 10.0 mi West 5.8 mph - N/A   Overcast
11:56 AM 27.0 °F 20.5 °F 23.4 °F 86% 29.87 in 10.0 mi WNW 5.8 mph - N/A   Overcast
12:15 PM 27.1 °F 21.8 °F 23.4 °F 86% 29.86 in 10.0 mi WNW 4.6 mph - N/A   Overcast
12:36 PM 27.5 °F 19.3 °F 23.4 °F 84% 29.86 in 10.0 mi West 8.1 mph - N/A   Overcast
12:56 PM 28.0 °F 22.8 °F 23.7 °F 84% 29.86 in 10.0 mi West 4.6 mph - N/A   Overcast
1:15 PM 27.5 °F 20.2 °F 23.5 °F 85% 29.86 in 10.0 mi West 6.9 mph - N/A   Overcast
1:36 PM 28.2 °F 22.0 °F 23.4 °F 82% 29.85 in 10.0 mi West 5.8 mph - N/A Snow Light Snow
1:56 PM 28.0 °F 20.8 °F 23.0 °F 81% 29.84 in 10.0 mi West 6.9 mph - N/A   Overcast
2:16 PM 28.2 °F 22.0 °F 23.2 °F 81% 29.83 in 10.0 mi WSW 5.8 mph - N/A Snow Light Snow
2:36 PM 28.0 °F 20.8 °F 22.6 °F 80% 29.83 in 10.0 mi WSW 6.9 mph - N/A Snow Light Snow
2:56 PM 27.9 °F 22.6 °F 22.6 °F 81% 29.83 in 10.0 mi WSW 4.6 mph - N/A Snow Light Snow
3:16 PM 28.0 °F 18.6 °F 22.1 °F 78% 29.83 in 10.0 mi WSW 10.4 mph - N/A   Overcast
3:36 PM 28.0 °F 19.3 °F 21.6 °F 77% 29.83 in 10.0 mi WSW 9.2 mph - N/A   Overcast
3:56 PM 28.0 °F 18.6 °F 20.5 °F 73% 29.83 in 10.0 mi West 10.4 mph 18.4 mph N/A   Overcast
4:16 PM 28.0 °F 18.6 °F 20.1 °F 72% 29.83 in 10.0 mi WSW 10.4 mph - N/A   Overcast
4:36 PM 27.9 °F 18.4 °F 20.1 °F 73% 29.82 in 10.0 mi West 10.4 mph 17.3 mph N/A   Overcast
4:55 PM 27.5 °F 19.3 °F 20.3 °F 74% 29.82 in 10.0 mi WSW 8.1 mph - N/A   Overcast
5:16 PM 27.0 °F 20.5 °F 19.9 °F 75% 29.82 in 10.0 mi West 5.8 mph - N/A   Overcast
5:35 PM 27.0 °F 20.5 °F 19.4 °F 73% 29.83 in 10.0 mi West 5.8 mph - N/A   Overcast
5:56 PM 26.6 °F 19.1 °F 19.0 °F 73% 29.83 in 10.0 mi West 6.9 mph 16.1 mph N/A   Overcast
6:16 PM 26.4 °F 19.8 °F 19.4 °F 75% 29.83 in 10.0 mi WSW 5.8 mph - N/A   Overcast
6:36 PM 26.1 °F 20.5 °F 19.4 °F 76% 29.84 in 10.0 mi West 4.6 mph - N/A   Overcast
6:56 PM 26.1 °F 20.5 °F 19.8 °F 77% 29.84 in 10.0 mi WSW 4.6 mph - N/A   Overcast
7:15 PM 25.7 °F 21.5 °F 19.4 °F 77% 29.84 in 10.0 mi West 3.5 mph - N/A   Overcast
7:36 PM 25.5 °F 18.7 °F 18.9 °F 76% 29.84 in 10.0 mi WSW 5.8 mph - N/A   Overcast
7:56 PM 25.5 °F 19.9 °F 18.9 °F 76% 29.83 in 10.0 mi West 4.6 mph - N/A   Overcast
8:15 PM 25.3 °F 19.7 °F 19.0 °F 77% 29.83 in 10.0 mi West 4.6 mph - N/A   Overcast
8:36 PM 25.3 °F 18.5 °F 19.2 °F 78% 29.82 in 10.0 mi West 5.8 mph - N/A   Overcast
8:56 PM 25.3 °F 18.5 °F 19.4 °F 78% 29.82 in 10.0 mi West 5.8 mph - N/A   Overcast
9:16 PM 25.3 °F 19.7 °F 19.4 °F 78% 29.82 in 10.0 mi West 4.6 mph - N/A   Overcast
9:36 PM 25.2 °F 20.9 °F 19.6 °F 79% 29.82 in 10.0 mi West 3.5 mph - N/A   Overcast
9:56 PM 25.2 °F - 19.4 °F 79% 29.81 in 10.0 mi Calm Calm - N/A   Overcast
10:16 PM 25.2 °F - 19.8 °F 80% 29.81 in 10.0 mi Calm Calm - N/A   Overcast
10:36 PM 25.2 °F 20.9 °F 19.4 °F 79% 29.81 in 10.0 mi West 3.5 mph - N/A   Overcast
10:56 PM 25.2 °F - 19.4 °F 79% 29.81 in 10.0 mi Calm Calm - N/A   Overcast
11:16 PM 25.2 °F 20.9 °F 19.2 °F 78% 29.80 in 10.0 mi WNW 3.5 mph - N/A   Overcast
11:36 PM 25.3 °F - 19.2 °F 78% 29.80 in 10.0 mi Calm Calm - N/A   Overcast
11:55 PM 25.2 °F - 19.2 °F 78% 29.79 in 10.0 mi Calm Calm - N/A   Overcast